FW6085 Weather Reports


time (UTC)temp
F
wind
direction
speed
knots
gust
knots
rain 1hr
in
rain 24hr
in
rain mn
in
humidity
%
barometer
mb
20260507070100 40 251 0.9 4.3 0.00 0.58 0.00 92 1011.6
20260507064555 40 205 1.7 5.2 0.00 0.58 0.00 93 1011.7
20260507063104 40 218 0.9 6.1 0.00 0.58 0.00 94 1011.8
20260507061556 40 236 0.0 5.2 0.00 0.58 0.00 94 1011.7
20260507060051 41 228 0.0 4.3 0.00 0.58 0.00 95 1011.9
20260507054550 41 0 1.7 5.2 0.00 0.58 0.00 95 1011.6
20260507053120 41 0 0.0 3.5 0.00 0.58 0.00 95 1011.5
20260507051601 41 236 0.0 4.3 0.00 0.58 0.00 95 1011.9
20260507050054 41 235 0.0 2.6 0.00 0.58 0.00 95 1011.7
20260507044555 42 240 1.7 6.1 0.00 0.58 0.00 95 1011.4
20260507043053 42 0 0.9 4.3 0.00 0.58 0.00 95 1011.5
20260507041552 43 226 1.7 6.1 0.00 0.58 0.00 96 1011.4
20260507040051 43 0 0.9 6.1 0.00 0.58 0.00 95 1011.1
20260507034552 43 242 2.6 6.1 0.00 0.58 0.58 95 1010.5
20260507033055 43 246 0.9 3.5 0.00 0.58 0.58 96 1010.7
20260507031556 44 0 0.0 2.6 0.00 0.58 0.58 96 1010.6
20260507030056 44 160 0.9 2.6 0.00 0.58 0.58 96 1011.0
20260507024603 43 0 0.0 1.7 0.00 0.58 0.58 96 1010.8
20260507023059 43 236 0.0 1.7 0.00 0.58 0.58 96 1010.9
20260507021558 42 0 0.0 0.9 0.00 0.58 0.58 96 1010.8
20260507020057 42 0 0.0 0.9 0.00 0.58 0.58 96 1011.0
20260507014612 42 0 0.0 0.0 0.00 0.58 0.58 96 1011.2
20260507013056 42 0 0.0 0.0 0.00 0.58 0.58 96 1011.2
20260507011603 42 0 0.0 0.0 0.00 0.58 0.58 95 1011.0
20260507010112 42 0 0.0 0.0 0.00 0.58 0.58 96 1010.9
20260507004615 42 0 0.0 0.0 0.00 0.58 0.58 96 1010.6
20260507003059 42 0 0.0 0.0 0.00 0.58 0.58 96 1010.6
20260507001557 42 0 0.0 0.0 0.00 0.58 0.58 95 1010.7
20260507000051 43 0 0.0 1.7 0.00 0.58 0.58 96 1010.4
20260506234557 43 0 0.0 0.9 0.00 0.58 0.58 96 1010.4
20260506233058 43 0 0.0 0.9 0.00 0.58 0.58 96 1010.3
20260506231558 42 0 0.0 0.9 0.00 0.58 0.58 96 1010.1
20260506230053 42 0 0.0 0.9 0.00 0.58 0.58 96 1010.1
20260506224549 42 0 0.0 3.5 0.00 0.58 0.58 96 1009.9
20260506223052 42 244 0.0 3.5 0.00 0.58 0.58 96 1009.9
20260506221549 42 0 0.0 4.3 0.00 0.58 0.58 96 1009.8
20260506220056 42 0 0.9 5.2 0.00 0.58 0.58 96 1010.0
20260506214600 42 264 0.9 4.3 0.00 0.58 0.58 96 1009.6
20260506213053 42 235 2.6 6.1 0.00 0.58 0.58 96 1009.8
20260506211603 42 224 1.7 7.0 0.00 0.58 0.58 96 1009.5
20260506210051 42 0 3.5 9.6 0.00 0.58 0.58 96 1009.5
20260506204552 43 256 3.5 9.6 0.00 0.58 0.58 96 1009.2
20260506203052 43 249 2.6 7.8 0.00 0.58 0.58 95 1008.9
20260506201549 43 226 3.5 10.4 0.01 0.58 0.58 95 1008.8
20260506194605 43 255 2.6 11.3 0.03 0.61 0.58 96 1008.5
20260506193056 43 262 2.6 9.6 0.03 0.61 0.58 96 1008.6
20260506191605 44 0 2.6 11.3 0.02 0.60 0.57 96 1008.2
20260506190053 43 231 2.6 9.6 0.02 0.58 0.56 96 1008.3
20260506184554 44 241 1.7 7.0 0.01 0.58 0.55 95 1008.1
20260506183108 44 233 3.5 8.7 0.02 0.58 0.55 96 1007.9
20260506181601 45 253 0.9 10.4 0.02 0.58 0.55 96 1007.7
20260506180115 44 227 0.9 6.1 0.02 0.57 0.54 96 1007.6
20260506174551 44 236 0.0 5.2 0.02 0.57 0.54 96 1007.3
20260506173119 44 238 0.0 6.1 0.01 0.56 0.52 95 1007.3
20260506171547 44 224 1.7 5.2 0.02 0.56 0.52 95 1007.1
20260506170050 44 243 1.7 4.3 0.01 0.55 0.52 95 1007.2
20260506164551 44 243 1.7 4.3 0.01 0.55 0.52 95 1007.2
20260506163056 44 0 0.9 4.3 0.02 0.55 0.52 95 1007.2
20260506161555 43 242 1.7 5.2 0.01 0.54 0.51 95 1007.3
20260506160050 43 233 0.9 6.1 0.01 0.54 0.51 95 1007.0
20260506154553 43 257 1.7 5.2 0.02 0.54 0.51 95 1007.0
20260506153049 44 237 0.0 4.3 0.02 0.52 0.50 95 1007.1
20260506151554 44 236 0.0 3.5 0.03 0.52 0.50 95 1007.1
20260506150058 43 0 0.9 6.1 0.04 0.52 0.50 95 1007.0
20260506144603 43 206 1.7 4.3 0.05 0.52 0.49 95 1006.8
20260506143052 43 244 0.9 2.6 0.05 0.51 0.48 95 1006.9
20260506141555 43 0 1.7 4.3 0.05 0.50 0.47 95 1006.5
20260506140055 43 243 0.9 4.3 0.06 0.49 0.46 95 1006.7
20260506134554 44 255 0.0 6.1 0.08 0.47 0.44 95 1006.6
20260506133101 44 0 0.0 4.3 0.10 0.46 0.43 95 1006.9
20260506131550 44 0 0.0 2.6 0.14 0.45 0.42 95 1006.8
20260506130053 44 228 0.0 1.7 0.15 0.43 0.40 95 1006.7
20260506124552 45 0 0.0 2.6 0.13 0.39 0.36 95 1006.8
20260506123056 45 225 0.9 6.1 0.11 0.36 0.33 95 1006.6
20260506121559 45 220 0.9 4.3 0.08 0.31 0.28 95 1006.4
20260506120051 45 243 0.0 4.3 0.08 0.28 0.25 94 1006.3
20260506114607 47 0 0.0 4.3 0.08 0.26 0.23 95 1006.2
20260506113057 47 219 0.9 2.6 0.09 0.25 0.22 95 1006.2
20260506111600 47 214 0.0 0.9 0.08 0.23 0.20 95 1006.1
20260506104557 46 0 0.0 0.9 0.07 0.17 0.14 95 1006.2
20260506103057 46 214 0.0 2.6 0.08 0.16 0.13 94 1006.3
20260506101552 46 165 0.0 0.9 0.09 0.15 0.12 94 1006.7
20260506100053 46 0 0.0 0.9 0.08 0.13 0.10 94 1006.5
20260506094611 46 245 0.0 2.6 0.06 0.13 0.07 94 1006.8
20260506093055 46 238 0.0 3.5 0.04 0.11 0.05 94 1006.5
20260506091553 46 238 1.7 5.2 0.03 0.09 0.03 93 1007.1
20260506090052 46 236 1.7 5.2 0.02 0.08 0.02 93 1007.5
20260506084556 47 216 0.0 2.6 0.01 0.07 0.01 93 1007.2
20260506083057 47 0 0.0 1.7 0.01 0.07 0.01 93 1006.9
20260506081552 47 0 0.0 3.5 0.00 0.06 0.00 93 1006.6
20260506080106 46 0 0.0 1.7 0.00 0.06 0.00 93 1006.8
20260506073109 46 0 0.0 2.6 0.00 0.06 0.00 93 1006.9
20260506071553 46 0 0.0 0.0 0.00 0.06 0.00 93 1007.1